IRIDIUM 33 DEB, 46972

Orbit data source: Space-Track

IRIDIUM 33 DEB, 46972 is space debris in LEO originally from a launch on Sun, 14 Sep 1997 UTC launched from the Tyuratam Missile And Space Complex (TTMTR). The debris from Iridium 33, an American commercial communications satellite, has been tracked extensively since its accidental collision with the defunct Russian satellite Cosmos 2251 in 2009. This event, occurring at high speed in low Earth orbit (LEO), generated thousands of pieces of space debris, significantly increasing the risk of further collisions. The Iridium 33 debris cloud has impacted space traffic management and orbital debris mitigation strategies, making it a subject of ongoing study in space situational awareness.

Loading next visibility...
Identifier
46972, 1997-051ACE
Orbit
LEO
Last TLE update
4 days ago
Origin
Manufacturer
Unknown
Mission
Spacecraft
Bus & Motor
Unknown
Mass
Unknown
Launch date (UTC)
1997-09-14 (28 years ago)
Launch vehicle
Unknown
Launch site
Tyuratam Missile And Space Complex (TTMTR)
Object type
Payload
Rocket body
Debris
Shape & HBR
Unknown
Radar Cross Section
Small (<0.1 m²)

Expand to show TLE details & history

TLE from 4 days ago
0 IRIDIUM 33 DEB
1 46972U 97051ACE 25179.58637825  .00001232  00000-0  31460-3 0  9993
2 46972  86.3878 111.3203 0007653 321.6817 159.8402 14.49762367752350
Epoch: 2025-06-28T14:04Z
TLE epoch observation values (Epoch: 2025-06-28T14:04:23.08Z)
Latitude
58.3599°
Longitude
157.45248°
Altitude
741.476 km
Speed
7.487 km/s
True Right ascension
19h 01m 53s
True Declination
58° 12' 21"
Sunlit
Object was in daylight at epoch
Visualization orbit readout
Latitude
-62.74341°
Longitude
-25.25593°
Altitude
745.234 km
Speed
7.484 km/s
Apparent Right ascension
05h 33m 44s
Apparent Declination
-52° 51' 17"
Sunlit
Object is in daylight
Visualization observer readout
Local Sidereal Time
16:42:41
Azimuth
209.743° SW
Elevation
-74.401°
Doppler factor
1
Orbital elements
Apogee altitude
728.802 km
Perigee altitude
717.933 km
Semi-major axis
7,101.504 km
Eccentricity
0.00077
Inclination
86.3878°
RAAN
111.3203°
Arg. of periapsis
321.6817°
True anomaly
Unknown
Mean anomaly
159.8402°
Eccentric anomaly
Unknown
Mean motion
3.62675 °/min
Orbital period
99.26 mins
BSTAR
0.0003146
Loading maneuver chart data...
Loading SW <> Apogee altitude chart data...

IRIDIUM 33 DEB Visibility forecast

Observer location: undefined°, undefined°

Span
Click to sort rows by Start time (UTC) header in descending order
Start Az.
Max El. time (UTC)
Max El. Az.
Max El.
End time (UTC)
End Az.
8 mins2025-07-02 07:33:11.023Z349.365° N2025-07-02 07:36:11.023Z301.19° NW42.392°2025-07-02 07:41:11.023Z188.29° SSW
6 mins2025-07-02 18:42:11.023Z121.066° SE2025-07-02 18:45:11.023Z75.577° E20.123°2025-07-02 18:48:11.023Z35.705° NE
7 mins2025-07-02 20:21:11.023Z220.797° SW2025-07-02 20:24:11.023Z277.253° WNW30.885°2025-07-02 20:28:11.023Z342.153° N
|